Regional Weather Roundup
Issued by NWS

Home | Current Version | Previous Version | Text Only | Print | Product List | Glossary On
Versions: 1 2 3 4 5 6 7 8 9 10 11 12 13 14 15 16 17 18 19 20 21 22 23 24 25 26 27 28 29 30 31 32 33 34 35 36 37 38 39 40 41 42 43 44 45 46 47 48 49 50
000
ASUS46 KPQR 041610
RWROR

OREGON REGIONAL WEATHER ROUNDUP
NATIONAL WEATHER SERVICE PORTLAND OR
900 AM PDT SAT JUL 04 2015

NOTE: "FAIR" INDICATES FEW OR NO CLOUDS BELOW 12,000 FEET WITH
NO SIGNIFICANT WEATHER AND/OR OBSTRUCTIONS TO VISIBILITY.

ORZ001>013-041700-
NORTHWEST OREGON


CITY           SKY/WX    TMP DP  RH WIND       PRES   REMARKS
ASTORIA        SUNNY     64  56  75 SE3       29.90S
NEWPORT        CLOUDY    57  55  94 CALM      29.94
PORTLAND       MOSUNNY   67  55  65 NW6       29.89F
VANCOUVER WA   SUNNY     68  53  58 VRB5      29.89S
SCAPPOOSE      SUNNY     66  52  60 CALM      29.89S
HILLSBORO      SUNNY     69  52  54 CALM      29.89S
AURORA         SUNNY     70  54  56 VRB5      29.89F
MCMINNVILLE    SUNNY     70  53  54 E5        29.89F
SALEM          SUNNY     71  50  47 CALM      29.88S
CORVALLIS      SUNNY     70  54  56 CALM      29.90F
EUGENE         PTSUNNY   68  53  58 CALM      29.89F
$$

ORZ021-028-041700-
SOUTHWEST OREGON


CITY           SKY/WX    TMP DP  RH WIND       PRES   REMARKS
NORTH BEND     MOSUNNY   57  55  94 NW3       29.92S
BROOKINGS      MOSUNNY   63  62  96 CALM      29.88S
ROSEBURG       CLOUDY    71  54  54 CALM      29.88F
SEXTON SUMMIT  PTSUNNY   73  52  47 VRB3      30.01S
MEDFORD        PTSUNNY   78  51  38 N5        29.89S
$$

ORZ014>016-041-041700-
COLUMBIA GORGE


CITY           SKY/WX    TMP DP  RH WIND       PRES   REMARKS
TROUTDALE      SUNNY     68  55  63 CALM      29.88S
THE DALLES     SUNNY     81  54  39 NW13      29.78F
$$

ORZ029>031-041-044-049-050-061>064-502-503-505>511-041700-
EASTERN OREGON


CITY           SKY/WX    TMP DP  RH WIND       PRES   REMARKS
REDMOND        PTSUNNY   74  45  35 SE6       29.96S
BEND             N/A    N/A N/A N/A MISG        N/A
PRINEVILLE     PTSUNNY   72  37  28 NE3       29.97S
KLAMATH FALLS  MOSUNNY   76  53  44 SE5       30.03S
LAKEVIEW       MOSUNNY   73  54  49 SE7       30.07S
HERMISTON      SUNNY     85  49  28 W8        29.78F
PENDLETON      SUNNY     84  43  23 S7        29.83F
JOHN DAY       MOSUNNY   78  38  23 W3        29.99S
MEACHAM        SUNNY     76  45  33 NE3       29.97S
LA GRANDE      SUNNY     73  45  35 N3        29.92F
BAKER CITY     SUNNY     76  48  37 SW6       29.95S
BURNS          PTSUNNY   78  36  21 NE3       30.01S
ROME             N/A     85  40  20 CALM      29.98S
ONTARIO        MOSUNNY   86  50  28 S5        29.85S
$$


USA.gov is the U.S. government's official web portal to all federal, state and local government web resources and services.